Time,TemperatureF,DewpointF,PressureIn,WindDirection,WindDirectionDegrees,WindSpeedMPH,WindSpeedGustMPH,Humidity,HourlyPrecipIn,Conditions,Clouds,dailyrainin,SoftwareType,DateUTC
2013-03-13 00:02:00,25.0,21.0,29.95,West,273,7.0,9.0,85,0.00,,,0.01,,2013-03-13 05:02:00,
2013-03-13 00:12:00,25.0,21.0,29.95,West,273,7.0,9.0,85,0.00,,,0.01,,2013-03-13 05:12:00,
2013-03-13 00:22:00,25.0,20.0,29.95,West,264,4.0,11.0,82,0.00,,,0.01,,2013-03-13 05:22:00,
2013-03-13 00:32:00,25.0,20.0,29.96,WNW,282,9.0,14.0,81,0.00,,,0.01,,2013-03-13 05:32:00,
2013-03-13 00:42:00,25.0,20.0,29.96,WNW,282,9.0,14.0,81,0.00,,,0.01,,2013-03-13 05:42:00,
2013-03-13 00:52:00,25.0,21.0,29.96,NW,306,8.0,12.0,83,0.00,,,0.01,,2013-03-13 05:52:00,
2013-03-13 01:02:00,25.0,21.0,29.96,NW,306,8.0,12.0,83,0.00,,,0.01,,2013-03-13 06:02:00,
2013-03-13 01:12:00,25.0,21.0,29.96,NW,306,8.0,12.0,83,0.00,,,0.01,,2013-03-13 06:12:00,
2013-03-13 01:23:00,25.0,21.0,29.96,NW,306,8.0,12.0,83,0.00,,,0.01,,2013-03-13 06:23:00,
2013-03-13 01:32:00,24.0,20.0,29.97,NW,320,5.0,11.0,84,0.00,,,0.01,,2013-03-13 06:32:00,
2013-03-13 01:42:00,24.0,20.0,29.97,NW,320,5.0,11.0,84,0.00,,,0.01,,2013-03-13 06:42:00,
2013-03-13 01:52:00,23.0,18.0,29.98,NW,311,8.0,12.0,81,0.00,,,0.01,,2013-03-13 06:52:00,
2013-03-13 02:02:00,23.0,17.0,29.98,NW,314,5.0,11.0,77,0.00,,,0.01,,2013-03-13 07:02:00,
2013-03-13 02:12:00,23.0,17.0,29.98,NW,314,5.0,11.0,77,0.00,,,0.01,,2013-03-13 07:12:00,
2013-03-13 02:22:00,23.0,16.0,29.98,NNW,333,5.0,11.0,73,0.00,,,0.01,,2013-03-13 07:22:00,
2013-03-13 02:32:00,23.0,13.0,29.99,NW,323,6.0,13.0,66,0.00,,,0.01,,2013-03-13 07:32:00,
2013-03-13 02:42:00,23.0,13.0,29.99,NW,323,6.0,13.0,66,0.00,,,0.01,,2013-03-13 07:42:00,
2013-03-13 02:52:00,23.0,14.0,29.99,NW,319,9.0,17.0,68,0.00,,,0.01,,2013-03-13 07:52:00,
2013-03-13 03:03:00,22.0,13.0,30.00,NW,316,6.0,17.0,69,0.00,,,0.01,,2013-03-13 08:03:00,
2013-03-13 03:12:00,22.0,13.0,30.00,NW,316,6.0,17.0,69,0.00,,,0.01,,2013-03-13 08:12:00,
2013-03-13 03:22:00,22.0,14.0,30.01,NNW,327,4.0,15.0,70,0.00,,,0.01,,2013-03-13 08:22:00,
2013-03-13 03:32:00,22.0,13.0,30.01,NW,318,10.0,14.0,69,0.00,,,0.01,,2013-03-13 08:32:00,
2013-03-13 03:43:00,22.0,13.0,30.01,NW,318,10.0,14.0,69,0.00,,,0.01,,2013-03-13 08:43:00,
2013-03-13 03:52:00,21.0,13.0,30.00,NW,313,9.0,15.0,70,0.00,,,0.01,,2013-03-13 08:52:00,
2013-03-13 04:02:00,21.0,13.0,30.01,NW,309,8.0,17.0,71,0.00,,,0.01,,2013-03-13 09:02:00,
2013-03-13 04:12:00,21.0,13.0,30.01,NW,309,8.0,17.0,71,0.00,,,0.01,,2013-03-13 09:12:00,
2013-03-13 04:22:00,21.0,13.0,30.01,WNW,302,8.0,17.0,72,0.00,,,0.01,,2013-03-13 09:22:00,
2013-03-13 04:32:00,21.0,14.0,30.02,NW,306,6.0,13.0,73,0.00,,,0.01,,2013-03-13 09:32:00,
2013-03-13 04:42:00,21.0,14.0,30.02,NW,306,6.0,13.0,73,0.00,,,0.01,,2013-03-13 09:42:00,
2013-03-13 04:52:00,20.0,13.0,30.02,NW,305,7.0,15.0,73,0.00,,,0.01,,2013-03-13 09:52:00,
2013-03-13 05:02:00,20.0,13.0,30.03,WNW,299,9.0,14.0,74,0.00,,,0.01,,2013-03-13 10:02:00,
2013-03-13 05:12:00,20.0,13.0,30.03,WNW,299,9.0,14.0,74,0.00,,,0.01,,2013-03-13 10:12:00,
2013-03-13 05:22:00,20.0,13.0,30.04,NW,307,4.0,15.0,75,0.00,,,0.01,,2013-03-13 10:22:00,
2013-03-13 05:32:00,20.0,14.0,30.04,WNW,303,9.0,14.0,77,0.00,,,0.01,,2013-03-13 10:32:00,
2013-03-13 05:42:00,20.0,14.0,30.04,WNW,303,9.0,14.0,77,0.00,,,0.01,,2013-03-13 10:42:00,
2013-03-13 05:52:00,20.0,14.0,30.05,WNW,301,9.0,15.0,77,0.00,,,0.01,,2013-03-13 10:52:00,
2013-03-13 06:02:00,19.0,13.0,30.06,WNW,296,11.0,15.0,77,0.00,,,0.01,,2013-03-13 11:02:00,
2013-03-13 06:12:00,19.0,13.0,30.06,WNW,296,11.0,15.0,77,0.00,,,0.01,,2013-03-13 11:12:00,
2013-03-13 06:32:00,19.0,13.0,30.07,West,280,7.0,12.0,78,0.00,,,0.01,,2013-03-13 11:32:00,
2013-03-13 06:42:00,19.0,13.0,30.07,West,280,7.0,12.0,78,0.00,,,0.01,,2013-03-13 11:42:00,
2013-03-13 06:52:00,19.0,13.0,30.07,West,280,7.0,12.0,78,0.00,,,0.01,,2013-03-13 11:52:00,
2013-03-13 07:02:00,19.0,14.0,30.08,WNW,282,8.0,15.0,79,0.00,,,0.01,,2013-03-13 12:02:00,
2013-03-13 07:12:00,19.0,14.0,30.08,WNW,282,8.0,15.0,79,0.00,,,0.01,,2013-03-13 12:12:00,
2013-03-13 07:22:00,19.0,14.0,30.09,WNW,301,7.0,13.0,79,0.00,,,0.01,,2013-03-13 12:22:00,
2013-03-13 07:32:00,18.0,13.0,30.09,WNW,297,6.0,11.0,79,0.00,,,0.01,,2013-03-13 12:32:00,
2013-03-13 07:42:00,18.0,13.0,30.09,WNW,297,6.0,11.0,79,0.00,,,0.01,,2013-03-13 12:42:00,
2013-03-13 07:53:00,19.0,13.0,30.09,NW,306,8.0,12.0,78,0.00,,,0.01,,2013-03-13 12:53:00,
2013-03-13 08:02:00,19.0,13.0,30.09,NW,306,8.0,12.0,78,0.00,,,0.01,,2013-03-13 13:02:00,
2013-03-13 08:11:00,19.0,13.0,30.09,NW,306,8.0,12.0,78,0.00,,,0.01,,2013-03-13 13:11:00,
2013-03-13 08:22:00,19.0,13.0,30.09,NW,306,8.0,12.0,78,0.00,,,0.01,,2013-03-13 13:22:00,
2013-03-13 08:33:00,20.0,13.0,30.11,NW,311,8.0,15.0,74,0.00,,,0.01,,2013-03-13 13:33:00,
2013-03-13 08:43:00,20.0,13.0,30.11,NW,311,8.0,15.0,74,0.00,,,0.01,,2013-03-13 13:43:00,
2013-03-13 08:52:00,21.0,13.0,30.12,NW,305,11.0,16.0,72,0.00,,,0.01,,2013-03-13 13:52:00,
2013-03-13 09:02:00,21.0,13.0,30.12,NW,305,11.0,16.0,72,0.00,,,0.01,,2013-03-13 14:02:00,
2013-03-13 09:12:00,21.0,13.0,30.12,NW,305,11.0,16.0,72,0.00,,,0.01,,2013-03-13 14:12:00,
2013-03-13 09:21:00,21.0,13.0,30.12,NW,305,11.0,16.0,72,0.00,,,0.01,,2013-03-13 14:21:00,
2013-03-13 09:33:00,23.0,14.0,30.14,NW,305,6.0,17.0,67,0.00,,,0.01,,2013-03-13 14:33:00,
2013-03-13 09:42:00,23.0,14.0,30.14,NW,305,6.0,17.0,67,0.00,,,0.01,,2013-03-13 14:42:00,
2013-03-13 09:53:00,23.0,13.0,30.15,NW,314,9.0,17.0,65,0.00,,,0.01,,2013-03-13 14:53:00,
2013-03-13 10:03:00,24.0,13.0,30.14,NW,320,8.0,17.0,63,0.00,,,0.01,,2013-03-13 15:03:00,
2013-03-13 10:12:00,24.0,13.0,30.14,NW,320,8.0,17.0,63,0.00,,,0.01,,2013-03-13 15:12:00,
2013-03-13 10:22:00,24.0,13.0,30.15,NW,306,11.0,18.0,63,0.00,,,0.01,,2013-03-13 15:22:00,
2013-03-13 10:32:00,24.0,13.0,30.16,WNW,300,6.0,19.0,61,0.00,,,0.01,,2013-03-13 15:32:00,
2013-03-13 10:42:00,24.0,13.0,30.16,WNW,300,6.0,19.0,61,0.00,,,0.01,,2013-03-13 15:42:00,
2013-03-13 10:52:00,24.0,13.0,30.17,NW,309,11.0,19.0,61,0.00,,,0.01,,2013-03-13 15:52:00,
2013-03-13 11:03:00,25.0,12.0,30.18,NW,310,13.0,21.0,58,0.00,,,0.01,,2013-03-13 16:03:00,
2013-03-13 11:12:00,25.0,12.0,30.18,NW,310,13.0,21.0,58,0.00,,,0.01,,2013-03-13 16:12:00,
2013-03-13 11:22:00,24.0,12.0,30.18,WNW,303,11.0,23.0,59,0.00,,,0.01,,2013-03-13 16:22:00,
2013-03-13 11:32:00,25.0,11.0,30.18,NW,311,11.0,23.0,55,0.00,,,0.01,,2013-03-13 16:32:00,
2013-03-13 11:42:00,25.0,11.0,30.18,NW,311,11.0,23.0,55,0.00,,,0.01,,2013-03-13 16:42:00,
2013-03-13 11:52:00,26.0,11.0,30.19,NW,304,7.0,20.0,52,0.00,,,0.01,,2013-03-13 16:52:00,
2013-03-13 12:02:00,27.0,11.0,30.19,NW,315,11.0,21.0,51,0.00,,,0.01,,2013-03-13 17:02:00,
2013-03-13 12:12:00,27.0,11.0,30.19,NW,315,11.0,21.0,51,0.00,,,0.01,,2013-03-13 17:12:00,
2013-03-13 12:22:00,27.0,11.0,30.19,NW,316,11.0,20.0,50,0.00,,,0.01,,2013-03-13 17:22:00,
2013-03-13 12:32:00,28.0,11.0,30.19,NW,309,8.0,19.0,49,0.00,,,0.00,,2013-03-13 17:32:00,
2013-03-13 12:42:00,28.0,11.0,30.19,NW,309,8.0,19.0,49,0.00,,,0.00,,2013-03-13 17:42:00,
2013-03-13 12:53:00,29.0,9.0,30.20,WNW,302,8.0,20.0,42,0.00,,,0.00,,2013-03-13 17:53:00,
2013-03-13 13:02:00,30.0,10.0,30.20,NW,322,7.0,17.0,43,0.00,,,0.00,,2013-03-13 18:02:00,
2013-03-13 13:12:00,30.0,10.0,30.20,NW,322,7.0,17.0,43,0.00,,,0.00,,2013-03-13 18:12:00,
2013-03-13 13:22:00,31.0,11.0,30.20,NW,324,7.0,18.0,43,0.00,,,0.00,,2013-03-13 18:22:00,
2013-03-13 13:33:00,31.0,6.0,30.21,NW,307,9.0,18.0,34,0.00,,,0.00,,2013-03-13 18:33:00,
2013-03-13 13:42:00,31.0,6.0,30.21,NW,307,9.0,18.0,34,0.00,,,0.00,,2013-03-13 18:42:00,
2013-03-13 13:52:00,31.0,6.0,30.21,NW,307,9.0,18.0,34,0.00,,,0.00,,2013-03-13 18:52:00,
2013-03-13 14:02:00,31.0,6.0,30.21,NW,307,9.0,18.0,34,0.00,,,0.00,,2013-03-13 19:02:00,
2013-03-13 14:12:00,31.0,6.0,30.21,NW,307,9.0,18.0,34,0.00,,,0.00,,2013-03-13 19:12:00,
2013-03-13 14:22:00,32.0,10.0,30.21,NW,313,10.0,17.0,39,0.00,,,0.00,,2013-03-13 19:22:00,
2013-03-13 14:32:00,31.0,10.0,30.22,WNW,298,12.0,21.0,40,0.00,,,0.00,,2013-03-13 19:32:00,
2013-03-13 14:43:00,31.0,10.0,30.22,WNW,298,12.0,21.0,40,0.00,,,0.00,,2013-03-13 19:43:00,
2013-03-13 14:53:00,31.0,8.0,30.22,WNW,285,8.0,21.0,37,0.00,,,0.00,,2013-03-13 19:53:00,
2013-03-13 15:02:00,30.0,6.0,30.22,WNW,291,7.0,21.0,36,0.00,,,0.00,,2013-03-13 20:02:00,
2013-03-13 15:12:00,30.0,6.0,30.22,WNW,291,7.0,21.0,36,0.00,,,0.00,,2013-03-13 20:12:00,
2013-03-13 15:22:00,31.0,7.0,30.22,NW,315,7.0,18.0,36,0.00,,,0.00,,2013-03-13 20:22:00,
2013-03-13 15:32:00,32.0,7.0,30.22,WNW,295,11.0,19.0,34,0.00,,,0.00,,2013-03-13 20:32:00,
2013-03-13 15:42:00,32.0,7.0,30.22,WNW,295,11.0,19.0,34,0.00,,,0.00,,2013-03-13 20:42:00,
2013-03-13 15:52:00,33.0,8.0,30.23,NW,309,11.0,17.0,34,0.00,,,0.00,,2013-03-13 20:52:00,
2013-03-13 16:02:00,33.0,8.0,30.23,NW,307,8.0,17.0,34,0.00,,,0.00,,2013-03-13 21:02:00,
2013-03-13 16:12:00,33.0,8.0,30.23,NW,307,8.0,17.0,34,0.00,,,0.00,,2013-03-13 21:12:00,
2013-03-13 16:22:00,34.0,8.0,30.23,West,273,11.0,17.0,33,0.00,,,0.00,,2013-03-13 21:22:00,
2013-03-13 16:33:00,33.0,8.0,30.23,WNW,293,6.0,19.0,34,0.00,,,0.00,,2013-03-13 21:33:00,
2013-03-13 16:42:00,33.0,8.0,30.23,WNW,293,6.0,19.0,34,0.00,,,0.00,,2013-03-13 21:42:00,
2013-03-13 16:52:00,34.0,8.0,30.24,WNW,283,8.0,17.0,33,0.00,,,0.00,,2013-03-13 21:52:00,
2013-03-13 17:02:00,33.0,8.0,30.24,NW,318,8.0,17.0,34,0.00,,,0.00,,2013-03-13 22:02:00,
2013-03-13 17:12:00,33.0,8.0,30.24,NW,318,8.0,17.0,34,0.00,,,0.00,,2013-03-13 22:12:00,
2013-03-13 17:22:00,34.0,9.0,30.24,WNW,298,7.0,13.0,34,0.00,,,0.00,,2013-03-13 22:22:00,
2013-03-13 17:32:00,33.0,7.0,30.24,WNW,292,7.0,14.0,33,0.00,,,0.00,,2013-03-13 22:32:00,
2013-03-13 17:42:00,33.0,7.0,30.24,WNW,292,7.0,14.0,33,0.00,,,0.00,,2013-03-13 22:42:00,
2013-03-13 17:52:00,33.0,8.0,30.24,WNW,298,6.0,11.0,34,0.00,,,0.00,,2013-03-13 22:52:00,
2013-03-13 18:02:00,32.0,9.0,30.24,West,279,7.0,12.0,37,0.00,,,0.00,,2013-03-13 23:02:00,
2013-03-13 18:12:00,32.0,9.0,30.24,West,279,7.0,12.0,37,0.00,,,0.00,,2013-03-13 23:12:00,
2013-03-13 18:22:00,31.0,9.0,30.24,West,272,5.0,14.0,39,0.00,,,0.00,,2013-03-13 23:22:00,
2013-03-13 18:32:00,31.0,10.0,30.25,WNW,289,5.0,12.0,40,0.00,,,0.00,,2013-03-13 23:32:00,
2013-03-13 18:42:00,31.0,10.0,30.25,WNW,289,5.0,12.0,40,0.00,,,0.00,,2013-03-13 23:42:00,
2013-03-13 18:52:00,30.0,9.0,30.25,West,274,4.0,11.0,41,0.00,,,0.00,,2013-03-13 23:52:00,
2013-03-13 19:02:00,30.0,9.0,30.25,West,274,4.0,11.0,41,0.00,,,0.00,,2013-03-14 00:02:00,
2013-03-13 19:12:00,30.0,9.0,30.25,West,274,4.0,11.0,41,0.00,,,0.00,,2013-03-14 00:12:00,
2013-03-13 19:22:00,28.0,8.0,30.25,West,259,3.0,8.0,43,0.00,,,0.00,,2013-03-14 00:22:00,
2013-03-13 19:32:00,28.0,9.0,30.26,West,270,3.0,8.0,45,0.00,,,0.00,,2013-03-14 00:32:00,
2013-03-13 19:42:00,28.0,9.0,30.26,West,270,3.0,8.0,45,0.00,,,0.00,,2013-03-14 00:42:00,
2013-03-13 19:52:00,27.0,9.0,30.26,West,274,2.0,5.0,46,0.00,,,0.00,,2013-03-14 00:52:00,
2013-03-13 20:02:00,27.0,10.0,30.25,WSW,252,1.0,4.0,48,0.00,,,0.00,,2013-03-14 01:02:00,
2013-03-13 20:12:00,27.0,10.0,30.25,WSW,252,1.0,4.0,48,0.00,,,0.00,,2013-03-14 01:12:00,
2013-03-13 20:22:00,26.0,10.0,30.25,SW,216,2.0,4.0,50,0.00,,,0.00,,2013-03-14 01:22:00,
2013-03-13 20:32:00,26.0,10.0,30.25,SW,230,2.0,4.0,50,0.00,,,0.00,,2013-03-14 01:32:00,
2013-03-13 20:42:00,26.0,10.0,30.25,SW,230,2.0,4.0,50,0.00,,,0.00,,2013-03-14 01:42:00,
2013-03-13 20:53:00,26.0,10.0,30.25,West,259,1.0,4.0,50,0.00,,,0.00,,2013-03-14 01:53:00,
2013-03-13 21:02:00,26.0,9.0,30.25,West,267,2.0,8.0,48,0.00,,,0.00,,2013-03-14 02:02:00,
2013-03-13 21:12:00,26.0,9.0,30.25,West,267,2.0,8.0,48,0.00,,,0.00,,2013-03-14 02:12:00,
2013-03-13 21:22:00,26.0,9.0,30.25,West,267,2.0,8.0,48,0.00,,,0.00,,2013-03-14 02:22:00,
2013-03-13 21:32:00,26.0,9.0,30.26,WNW,284,4.0,8.0,47,0.00,,,0.00,,2013-03-14 02:32:00,
2013-03-13 21:42:00,26.0,9.0,30.26,WNW,284,4.0,8.0,47,0.00,,,0.00,,2013-03-14 02:42:00,
2013-03-13 21:52:00,26.0,9.0,30.26,WNW,284,4.0,8.0,47,0.00,,,0.00,,2013-03-14 02:52:00,
2013-03-13 22:02:00,26.0,9.0,30.25,West,276,2.0,7.0,47,0.00,,,0.00,,2013-03-14 03:02:00,
2013-03-13 22:12:00,26.0,9.0,30.25,West,276,2.0,7.0,47,0.00,,,0.00,,2013-03-14 03:12:00,
2013-03-13 22:23:00,26.0,8.0,30.25,WNW,288,2.0,7.0,46,0.00,,,0.00,,2013-03-14 03:23:00,
2013-03-13 22:32:00,25.0,8.0,30.26,WNW,283,1.0,3.0,47,0.00,,,0.00,,2013-03-14 03:32:00,
2013-03-13 22:42:00,25.0,8.0,30.26,WNW,283,1.0,3.0,47,0.00,,,0.00,,2013-03-14 03:42:00,
2013-03-13 22:52:00,25.0,8.0,30.25,West,263,2.0,3.0,47,0.00,,,0.00,,2013-03-14 03:52:00,
2013-03-13 23:12:00,25.0,8.0,30.25,West,263,2.0,3.0,47,0.00,,,0.00,,2013-03-14 04:12:00,
2013-03-13 23:22:00,25.0,8.0,30.25,WNW,283,2.0,8.0,48,0.00,,,0.00,,2013-03-14 04:22:00,
2013-03-13 23:32:00,25.0,9.0,30.26,West,269,1.0,4.0,49,0.00,,,0.00,,2013-03-14 04:32:00,
2013-03-13 23:42:00,25.0,9.0,30.26,West,269,1.0,4.0,49,0.00,,,0.00,,2013-03-14 04:42:00,
2013-03-13 23:52:00,24.0,8.0,30.26,West,272,2.0,5.0,49,0.00,,,0.00,,2013-03-14 04:52:00,